Hourly Weather Goiania

Today, 20 October, Tuesday

Time Temperature Precipitation Wind Pressure Humidity
00:00 +22°C° 0 mm 3 mps 698 mmHg 80%
01:00 +23°C° 0.1 mm 2 mps 698 mmHg 80%
02:00 +23°C° 0.1 mm 2 mps 698 mmHg 81%
03:00 +23°C° 0.1 mm 1 mps 697 mmHg 81%
04:00 +23°C° 0.2 mm 1 mps 698 mmHg 83%
05:00 +23°C° 0.2 mm 1 mps 698 mmHg 85%
06:00 +22°C° 0.2 mm 1 mps 699 mmHg 86%
07:00 +23°C° 0.3 mm 1 mps 699 mmHg 86%
08:00 +23°C° 0.3 mm 1 mps 700 mmHg 85%
09:00 +23°C° 0.3 mm 1 mps 700 mmHg 84%
10:00 +24°C° 0.1 mm 1 mps 700 mmHg 80%
11:00 +23°C° 0.1 mm 0 mps 700 mmHg 76%
12:00 +24°C° 0.1 mm 0 mps 700 mmHg 71%
13:00 +25°C° 0.1 mm 0 mps 699 mmHg 66%
14:00 +28°C° 0.1 mm 1 mps 699 mmHg 61%
15:00 +30°C° 0.1 mm 1 mps 698 mmHg 56%
16:00 +28°C° 0.2 mm 1 mps 698 mmHg 61%
17:00 +27°C° 0.2 mm 1 mps 698 mmHg 66%
18:00 +26°C° 0.2 mm 1 mps 698 mmHg 71%
19:00 +25°C° 0.1 mm 1 mps 698 mmHg 75%
20:00 +24°C° 0.1 mm 1 mps 698 mmHg 79%
21:00 +23°C° 0.1 mm 1 mps 699 mmHg 83%
22:00 +23°C° 0.1 mm 1 mps 699 mmHg 82%
23:00 +23°C° 0.1 mm 1 mps 699 mmHg 81%

Tomorrow, 21 October, Wednesday

Time Temperature Precipitation Wind Pressure Humidity
00:00 +24°C° 0.1 mm 1 mps 699 mmHg 81%
01:00 +24°C° 0 mm 1 mps 698 mmHg 81%
02:00 +24°C° 0 mm 1 mps 698 mmHg 81%
03:00 +23°C° 0 mm 1 mps 697 mmHg 81%
04:00 +23°C° 0 mm 1 mps 698 mmHg 81%
05:00 +23°C° 0 mm 1 mps 698 mmHg 81%
06:00 +21°C° 0 mm 0 mps 698 mmHg 81%
07:00 +25°C° 0 mm 1 mps 699 mmHg 76%
08:00 +26°C° 0 mm 1 mps 699 mmHg 71%
09:00 +27°C° 0 mm 1 mps 700 mmHg 67%
10:00 +29°C° 0 mm 1 mps 700 mmHg 58%
11:00 +31°C° 0 mm 1 mps 700 mmHg 50%
12:00 +33°C° 0 mm 1 mps 700 mmHg 42%
13:00 +33°C° 0 mm 1 mps 700 mmHg 41%
14:00 +34°C° 0 mm 2 mps 699 mmHg 40%
15:00 +34°C° 0 mm 3 mps 699 mmHg 39%
16:00 +32°C° 0 mm 2 mps 698 mmHg 45%
17:00 +30°C° 0 mm 2 mps 698 mmHg 51%
18:00 +28°C° 0 mm 1 mps 697 mmHg 56%
19:00 +28°C° 0.1 mm 1 mps 698 mmHg 60%
20:00 +27°C° 0.1 mm 1 mps 698 mmHg 63%
21:00 +24°C° 0.1 mm 0 mps 699 mmHg 67%
22:00 +25°C° 0.2 mm 1 mps 699 mmHg 71%
23:00 +25°C° 0.2 mm 2 mps 699 mmHg 75%

Day after tomorrow, 22 October, Thursday

Time Temperature Precipitation Wind Pressure Humidity
00:00 +24°C° 0.2 mm 2 mps 699 mmHg 79%
01:00 +24°C° 0 mm 2 mps 698 mmHg 80%
02:00 +24°C° 0 mm 1 mps 698 mmHg 81%
03:00 +24°C° 0 mm 1 mps 698 mmHg 82%
04:00 +22°C° 0 mm 0 mps 698 mmHg 83%
05:00 +21°C° 0 mm 0 mps 698 mmHg 83%
06:00 +21°C° 0 mm 0 mps 698 mmHg 83%
07:00 +23°C° 0 mm 0 mps 699 mmHg 76%
08:00 +26°C° 0 mm 1 mps 699 mmHg 69%
09:00 +28°C° 0 mm 1 mps 699 mmHg 62%
10:00 +30°C° 0 mm 1 mps 699 mmHg 55%
11:00 +31°C° 0 mm 1 mps 699 mmHg 49%
12:00 +33°C° 0 mm 1 mps 699 mmHg 42%
13:00 +34°C° 0 mm 2 mps 699 mmHg 41%
14:00 +34°C° 0 mm 2 mps 698 mmHg 40%
15:00 +34°C° 0 mm 3 mps 697 mmHg 39%
16:00 +31°C° 0.2 mm 3 mps 697 mmHg 47%
17:00 +29°C° 0.2 mm 2 mps 697 mmHg 56%
18:00 +27°C° 0.2 mm 2 mps 696 mmHg 65%
19:00 +27°C° 0.5 mm 2 mps 697 mmHg 69%
20:00 +26°C° 0.5 mm 1 mps 697 mmHg 72%
21:00 +25°C° 0.5 mm 1 mps 697 mmHg 76%
22:00 +25°C° 0.5 mm 1 mps 697 mmHg 77%
23:00 +24°C° 0.5 mm 1 mps 697 mmHg 78%

23 October, Friday

Time Temperature Precipitation Wind Pressure Humidity
00:00 +24°C° 0.5 mm 1 mps 697 mmHg 79%
01:00 +24°C° 0.7 mm 1 mps 697 mmHg 80%
02:00 +23°C° 0.7 mm 1 mps 696 mmHg 81%
03:00 +23°C° 0.7 mm 1 mps 696 mmHg 82%
04:00 +23°C° 0.2 mm 1 mps 696 mmHg 82%
05:00 +23°C° 0.2 mm 1 mps 697 mmHg 83%
06:00 +23°C° 0.2 mm 1 mps 697 mmHg 83%
07:00 +25°C° 0 mm 1 mps 698 mmHg 74%
08:00 +27°C° 0 mm 1 mps 698 mmHg 66%
09:00 +29°C° 0 mm 2 mps 699 mmHg 57%
10:00 +31°C° 0 mm 2 mps 699 mmHg 50%
11:00 +34°C° 0 mm 3 mps 698 mmHg 44%
12:00 +35°C° 0 mm 3 mps 698 mmHg 38%
13:00 +34°C° 0.1 mm 3 mps 698 mmHg 43%
14:00 +33°C° 0.1 mm 3 mps 697 mmHg 48%
15:00 +30°C° 0.1 mm 3 mps 696 mmHg 53%
16:00 +29°C° 0.8 mm 3 mps 696 mmHg 62%
17:00 +27°C° 0.8 mm 3 mps 695 mmHg 70%
18:00 +25°C° 0.8 mm 3 mps 695 mmHg 78%
19:00 +25°C° 0.1 mm 3 mps 695 mmHg 79%
20:00 +24°C° 0.1 mm 2 mps 696 mmHg 81%
21:00 +24°C° 0.1 mm 2 mps 696 mmHg 82%
22:00 +24°C° 0 mm 2 mps 697 mmHg 81%
23:00 +24°C° 0 mm 1 mps 697 mmHg 80%

24 October, Saturday

Time Temperature Precipitation Wind Pressure Humidity
00:00 +25°C° 0 mm 1 mps 697 mmHg 79%
01:00 +24°C° 0.2 mm 1 mps 697 mmHg 79%
02:00 +24°C° 0.2 mm 1 mps 696 mmHg 79%
03:00 +24°C° 0.2 mm 1 mps 696 mmHg 79%
04:00 +24°C° 0.4 mm 1 mps 696 mmHg 80%
05:00 +24°C° 0.4 mm 1 mps 697 mmHg 81%
06:00 +24°C° 0.4 mm 1 mps 697 mmHg 82%
07:00 +24°C° 0.5 mm 1 mps 697 mmHg 82%
08:00 +25°C° 0.5 mm 1 mps 698 mmHg 81%
09:00 +25°C° 0.5 mm 1 mps 699 mmHg 80%
10:00 +25°C° 0.4 mm 1 mps 698 mmHg 78%
11:00 +25°C° 0.4 mm 1 mps 698 mmHg 77%
12:00 +26°C° 0.4 mm 1 mps 698 mmHg 76%
13:00 +25°C° 0.2 mm 1 mps 697 mmHg 77%
14:00 +25°C° 0.2 mm 1 mps 696 mmHg 78%
15:00 +25°C° 0.2 mm 2 mps 696 mmHg 79%
16:00 +25°C° 0.3 mm 1 mps 696 mmHg 81%
17:00 +24°C° 0.3 mm 1 mps 696 mmHg 83%
18:00 +24°C° 0.3 mm 1 mps 695 mmHg 85%
19:00 +24°C° 0.7 mm 1 mps 696 mmHg 86%
20:00 +24°C° 0.7 mm 1 mps 696 mmHg 86%
21:00 +23°C° 0.7 mm 1 mps 696 mmHg 87%
22:00 +23°C° 0.3 mm 1 mps 696 mmHg 88%
23:00 +23°C° 0.3 mm 1 mps 696 mmHg 88%

25 October, Sunday

Time Temperature Precipitation Wind Pressure Humidity
00:00 +23°C° 0.3 mm 1 mps 697 mmHg 88%
01:00 +23°C° 0.2 mm 1 mps 696 mmHg 89%
02:00 +23°C° 0.2 mm 1 mps 696 mmHg 89%
03:00 +23°C° 0.2 mm 1 mps 695 mmHg 89%
04:00 +22°C° 0.8 mm 1 mps 696 mmHg 90%
05:00 +22°C° 0.8 mm 1 mps 696 mmHg 91%
06:00 +22°C° 0.8 mm 1 mps 696 mmHg 91%
07:00 +23°C° 1.3 mm 1 mps 697 mmHg 91%
08:00 +23°C° 1.3 mm 1 mps 697 mmHg 90%
09:00 +23°C° 1.3 mm 1 mps 698 mmHg 90%
10:00 +24°C° 0.3 mm 1 mps 698 mmHg 87%
11:00 +24°C° 0.3 mm 1 mps 697 mmHg 84%
12:00 +25°C° 0.3 mm 1 mps 697 mmHg 82%
13:00 +26°C° 0.2 mm 2 mps 697 mmHg 75%
14:00 +28°C° 0.2 mm 2 mps 696 mmHg 68%
15:00 +29°C° 0.2 mm 3 mps 696 mmHg 62%
16:00 +28°C° 1.2 mm 2 mps 696 mmHg 68%
17:00 +27°C° 1.2 mm 2 mps 696 mmHg 75%
18:00 +26°C° 1.2 mm 1 mps 695 mmHg 81%
19:00 +25°C° 1.6 mm 1 mps 696 mmHg 83%
20:00 +24°C° 1.6 mm 1 mps 696 mmHg 84%
21:00 +24°C° 1.6 mm 1 mps 697 mmHg 86%
22:00 +23°C° 0 mm 1 mps 696 mmHg 86%
23:00 +23°C° 0 mm 1 mps 696 mmHg 87%

26 October, Monday

Time Temperature Precipitation Wind Pressure Humidity
00:00 +23°C° 0 mm 1 mps 696 mmHg 88%
01:00 +23°C° 0 mm 1 mps 696 mmHg 88%
02:00 +22°C° 0 mm 1 mps 696 mmHg 88%
03:00 +22°C° 0 mm 1 mps 696 mmHg 88%
04:00 +22°C° 0 mm 1 mps 696 mmHg 88%
05:00 +22°C° 0 mm 1 mps 696 mmHg 88%
06:00 +22°C° 0 mm 1 mps 696 mmHg 88%
07:00 +24°C° 0.3 mm 1 mps 697 mmHg 82%
08:00 +26°C° 0.3 mm 1 mps 698 mmHg 75%
09:00 +28°C° 0.3 mm 2 mps 698 mmHg 69%
10:00 +28°C° 1.5 mm 2 mps 698 mmHg 67%
11:00 +29°C° 1.5 mm 3 mps 697 mmHg 65%
12:00 +30°C° 1.5 mm 3 mps 697 mmHg 63%
13:00 +30°C° 1.9 mm 3 mps 696 mmHg 65%
14:00 +29°C° 1.9 mm 3 mps 696 mmHg 67%
15:00 +29°C° 1.9 mm 3 mps 695 mmHg 70%
16:00 +28°C° 1.8 mm 3 mps 695 mmHg 74%
17:00 +27°C° 1.8 mm 3 mps 695 mmHg 78%
18:00 +25°C° 1.8 mm 2 mps 695 mmHg 82%
19:00 +25°C° 0.5 mm 2 mps 695 mmHg 84%
20:00 +24°C° 0.5 mm 2 mps 696 mmHg 86%
21:00 +24°C° 0.5 mm 2 mps 696 mmHg 88%
Show more

We Need Your Consent

Meteoprog and our Service Providers may store and access personal data such as cookies, device identifiers or other similar technologies on your device and process such data to personalise content and ads, as well as provide social media features and to analyse the traffic.

  • Store and/or access information on your device

    Cookies, device identifiers or other information can be stored or accessed on your device for the purposes indicated above.

  • Personalised ads and content, ad and content measurement, audience insights, and products development

    Ads and content can be personalised based on a profile. More data can be added to better personalise ads and content. Ad and content performance can be measured. Insights about the audience who saw the ads and content can be derived. Such data can be used to develop or improve user’s experience, systems and software.

By clicking ‘I Agree’ you will allow the use of indicated cookies, device identifiers, web beacons or other similar technologies. Your settings can be changed in the browser on your device.

For certain purposes, legitimate interests may be relied on, rather than consent. You can read more about this in our Privacy and Cookie Policy.